Location: Launay
(47.2429°N, 1.5727°E)
Time: 00:23:45
(UTC+00:00)

Cosmos 1743 - Pass Details

Date: 19 May 2025
Orbit: 432 x 441 km, 82.5° (Epoch: 18 June)

Event Time Altitude Azimuth Distance (km) Brightness Sun altitude
Rises 20:13:38 0° 356° (N) 2,459 6.9 -7.1°
Reaches altitude 10° 20:15:46 10° 2° (N) 1,581 5.7 -7.3°
Maximum altitude 20:19:06 46° 77° (ENE) 608 2.8 -7.8°
Drops below altitude 10° 20:22:23 10° 153° (SSE) 1,561 4.5 -8.2°
Enters shadow 20:22:29 - 153° (SSE) 1,597 4.6 -8.2°
